Location: Newark
(49.7808°N, 2.3717°E)
Time: 08:29:36
(UTC+00:00)

N. Korean satellite - Visible Passes

Search period start: 18 January 2020 00:00
Search period end: 28 January 2020 00:00
Orbit: 454 x 508 km, 97.2° (Epoch: 17 January)

Date Brightness Start Highest point End Pass type
(mag) Time Alt. Az. Time Alt. Az. Time Alt. Az.
18 Jan 7.1 05:35:19 10° NNE 05:38:47 57° E 05:42:16 10° S visible
18 Jan 9.7 17:49:44 10° SW 17:51:51 15° W 17:53:59 10° NW visible
19 Jan 8.6 05:10:06 10° NE 05:13:11 29° E 05:16:20 10° SSE visible
19 Jan 7.6 06:43:40 10° NNW 06:46:29 23° WNW 06:49:21 10° WSW visible
19 Jan 8.8 17:23:09 10° SSW 17:26:11 29° W 17:29:13 10° NNW visible
20 Jan 9.6 04:45:19 10° NE 04:47:32 16° E 04:49:45 10° SE visible
20 Jan 6.8 06:17:46 10° N 06:21:08 43° WNW 06:24:31 10° SW visible
20 Jan 7.2 16:57:12 10° S 17:00:35 59° W 17:04:00 10° NNW visible
21 Jan 6.4 05:52:09 10° NNE 05:55:41 87° WNW 05:59:15 10° SSW visible
22 Jan 7.6 05:26:44 10° NNE 05:30:09 45° E 05:33:37 10° S visible
22 Jan 8.1 07:00:59 10° NNW 07:03:15 16° WNW 07:05:31 10° WSW visible
22 Jan 9.6 17:40:40 10° SW 17:43:10 19° W 17:45:41 10° NW visible
23 Jan 9.0 05:01:37 10° NE 05:04:33 24° E 05:07:29 10° SSE visible
23 Jan 7.4 06:34:51 10° N 06:37:56 28° WNW 06:41:03 10° SW visible
23 Jan 8.3 17:14:20 10° SSW 17:17:30 36° W 17:20:43 10° NNW visible
24 Jan 9.9 04:37:06 10° ENE 04:38:50 13° E 04:40:35 10° ESE visible
24 Jan 6.6 06:09:04 10° N 06:12:33 54° WNW 06:16:04 10° SSW visible
25 Jan 6.7 05:43:30 10° NNE 05:47:04 74° ESE 05:50:40 10° S visible
25 Jan 9.9 17:58:40 10° WSW 18:00:11 12° W 18:01:43 10° WNW visible
26 Jan 8.1 05:18:10 10° NNE 05:21:30 36° E 05:24:53 10° SSE visible
26 Jan 7.9 06:52:03 10° NNW 06:54:42 20° WNW 06:57:22 10° WSW visible
26 Jan 9.2 17:31:40 10° SSW 17:34:27 23° W 17:37:17 10° NW visible
27 Jan 9.3 04:53:10 10° NE 04:55:52 20° E 04:58:35 10° SE visible
27 Jan 7.1 06:26:04 10° N 06:29:21 35° WNW 06:32:41 10° SW visible
